Location: São Paulo
(23.5507°S, 46.6334°W)
Time: 07:28:30
(UTC-03:00)

Explorer 7 - Pass Details

Date: 17 February 2026
Orbit: 430 x 541 km, 50.2° (Epoch: 10 March)

Event Time Altitude Azimuth Distance (km) Brightness Sun altitude
Rises 10:14:12 0° 212° (SSW) 2,500 9.9 57.8°
Reaches altitude 10° 10:16:32 10° 202° (SSW) 1,600 9.1 58.3°
Maximum altitude 10:19:49 33° 136° (SE) 777 8.3 59.1°
Drops below altitude 10° 10:22:59 10° 70° (ENE) 1,545 9.8 59.8°
Sets 10:25:12 0° 60° (ENE) 2,398 10.5 60.2°
